Location: Alto Pass Reservoir
(37.5801°N, 89.3084°W)
Time: 23:45:39
(UTC+00:00)

ISS - Visible Passes

Search period start: 28 November 2023 00:00
Search period end: 08 December 2023 00:00
Orbit: 416 x 418 km, 51.6° (Epoch: 28 November)

Date Brightness Start Highest point End Pass type
(mag) Time Alt. Az. Time Alt. Az. Time Alt. Az.
01 Dec -1.5 00:18:20 10° NNW 00:19:23 15° N 00:19:23 15° N visible
01 Dec -1.8 23:30:20 10° NNW 23:32:17 14° NNE 23:33:14 13° NE visible
02 Dec -0.5 01:06:08 10° NW 01:06:10 10° NW 01:06:10 10° NW visible
03 Dec -2.8 00:17:46 10° NW 00:20:09 35° N 00:20:09 35° N visible
03 Dec -2.7 23:29:30 10° NNW 23:32:27 27° NNE 23:34:20 17° E visible
04 Dec -0.9 01:06:10 10° WNW 01:07:17 18° W 01:07:17 18° W visible
05 Dec -3.3 00:17:26 10° WNW 00:20:44 58° SW 00:21:45 37° SSE visible
05 Dec -3.9 23:28:51 10° NW 23:32:12 74° NE 23:35:32 10° SE visible
07 Dec -0.9 00:17:40 10° W 00:20:03 18° SW 00:22:26 10° S visible
07 Dec -1.9 23:28:30 10° WNW 23:31:33 33° SW 23:34:36 10° SSE visible
